Weather in Islandia

United States     40°48′34″N   73°10′56″W
temp.,
°C
wind,
m/s
gust,
m/s
humid.,
%
clouds,
%
prec.,
mm/h
press.,
hPa
HPBL,
m
17 may, mon
mon1723:00+15ene0063100 0.0 102511
02:00+13nne11715 0.0 102417
05:00+13nnw11730 0.0 102512
08:00+16nnw23590 0.0 1026231
11:00+21sw22390 0.0 10261353
14:00+20s544120 0.0 10251387
17:00+19ssw55440 0.0 1025737
20:00+16ssw49494 0.0 1026348
18 may, tue
tue1823:00+15sw410660 0.0 1026306
02:00+15wsw3865100 0.0 1026202
05:00+15wsw386199 0.0 1025245
08:00+16wsw4857100 0.0 1027374
11:00+21sw45445 0.0 10261208
14:00+21ssw574799 0.0 10241052
17:00+18ssw485674 0.0 1024354
20:00+18sw486218 0.0 1024220
19 may, wed
wed1923:00+16wsw247417 0.0 102484
02:00+16nw35745 0.0 102499
05:00+15nw27765 0.0 1025142
08:00+19nnw36600 0.0 1026246
11:00+24nw34385 0.0 10261118
14:00+27wnw24320 0.0 10251848
17:00+27nw14331 0.0 10242053
20:00+22sw23510 0.0 102565
20 may, thu
thu2023:00+20sw35580 0.0 1025104
02:00+19nw22600 0.0 102634
05:00+18nne22620 0.0 102745
08:00+20ene34600 0.0 1028258
11:00+23e325030 0.0 1029773
14:00+22se5450100 0.0 1029736
17:00+19se4644100 0.0 1029470
20:00+16sse3654100 0.0 1029259
21 may, fri
fri2123:00+15sse3464100 0.0 1030212
02:00+15sse2469100 0.0 1029160
05:00+15sse2372100 0.0 1029142
08:00+16s236498 0.0 1030259
11:00+18ssw3360100 0.0 1030385
14:00+18sw3372100 0.3 1028385
17:00+16sw2393100 2.0 1027213
20:00+15sw2397100 2.8 1026150